Location: Baix
(44.7118°N, 4.7648°E)
Time: 10:12:46
(UTC+00:00)

Vanguard 2 Rocket - Pass Details

Date: 01 December 2020
Orbit: 554 x 3325 km, 32.9° (Epoch: 21 January)

Event Time Altitude Azimuth Distance (km) Brightness Sun altitude
Rises 13:20:04 0° 277° (W) 6,861 11.6 18.8°
Reaches altitude 10° 13:26:47 10° 264° (W) 5,399 11.4 18.2°
Maximum altitude 13:36:05 20° 226° (SW) 3,829 12.1 17.4°
Drops below altitude 10° 13:42:59 10° 185° (S) 3,826 11.4 16.8°
Sets 13:46:39 0° 168° (SSE) 4,374 11.1 16.4°
